Date,TemperatureHighF,TemperatureAvgF,TemperatureLowF,DewpointHighF,DewpointAvgF,DewpointLowF,HumidityHigh,HumidityAvg,HumidityLow,PressureMaxIn,PressureMinIn,WindSpeedMaxMPH,WindSpeedAvgMPH,GustSpeedMaxMPH,PrecipitationSumIn
2013-12-1,51,42,35,41,35,31,88,78,55,30.33,30.00,6,2,8,0.00
2013-12-2,48,41,37,39,36,31,96,80,64,30.00,29.86,5,1,7,0.00
2013-12-3,51,43,38,42,40,36,96,87,65,29.99,29.85,5,2,7,0.00
2013-12-4,50,45,38,48,42,35,97,90,82,30.11,29.99,3,1,4,0.00
2013-12-5,59,52,48,56,51,47,97,96,89,30.10,29.93,6,1,9,0.01
2013-12-6,56,48,38,55,47,36,98,96,92,30.11,29.87,13,5,20,0.43
2013-12-7,40,37,32,36,31,24,95,81,64,30.49,30.06,14,6,16,0.07
2013-12-8,40,32,27,39,27,19,96,82,65,30.57,30.30,14,6,18,0.25
2013-12-9,47,41,34,46,40,32,97,96,93,30.31,29.95,16,6,19,0.48
2013-12-10,36,32,26,33,30,24,97,93,87,30.15,29.85,7,2,11,0.05
2013-12-11,34,28,23,24,21,18,91,75,56,30.35,30.15,5,2,12,0.00
2013-12-12,28,24,20,21,13,7,83,64,45,30.35,30.19,11,4,14,0.00
2013-12-13,37,28,18,22,17,11,78,64,47,30.32,30.14,7,2,11,0.00
2013-12-14,50,37,29,50,34,20,98,86,67,30.43,29.67,18,11,26,0.71
2013-12-15,53,39,31,53,35,24,98,86,66,29.87,29.45,16,6,18,0.28
2013-12-16,32,28,21,25,15,10,78,60,45,30.23,29.85,13,4,17,0.00
2013-12-17,45,33,25,43,29,14,96,85,60,30.22,29.89,10,4,12,0.12
2013-12-18,38,30,24,26,23,21,92,75,54,30.19,29.89,11,5,16,0.00
2013-12-19,49,38,26,34,28,21,85,68,48,30.20,30.03,4,1,6,0.00
2013-12-20,55,47,38,46,37,32,93,70,49,30.09,29.97,4,1,9,0.00
2013-12-21,61,53,45,55,49,43,95,86,73,30.01,29.89,4,1,7,0.00
2013-12-22,69,58,51,65,56,50,98,92,83,29.96,29.83,9,3,18,0.04
2013-12-23,59,53,42,58,52,36,98,95,79,30.13,29.87,12,3,16,0.47
2013-12-24,42,36,29,36,26,14,79,66,52,30.34,30.07,12,7,15,0.00
2013-12-25,30,26,20,22,14,9,73,61,46,30.51,30.34,12,5,16,0.00
2013-12-26,40,32,26,28,24,20,82,74,59,30.41,30.15,7,2,8,0.00
2013-12-27,44,33,25,27,23,18,88,70,40,30.37,30.26,7,1,10,0.00
2013-12-28,58,43,28,32,29,23,88,60,36,30.29,30.07,5,2,10,0.00
2013-12-29,57,45,41,56,40,30,98,83,60,30.07,29.37,11,4,17,1.42
2013-12-30,46,39,25,41,32,14,94,78,58,30.17,29.69,11,5,17,0.00
2013-12-31,38,29,23,27,18,13,73,62,52,30.29,30.06,9,5,15,0.00